Regional Weather Roundup
Issued by NWS

Home | Current Version | Previous Version | Graphics & Text | Print | Product List | Glossary On
Versions: 1 2 3 4 5 6 7 8 9 10 11 12 13 14 15 16 17 18 19 20 21 22 23 24 25 26 27 28 29 30 31 32 33 34 35 36 37 38 39 40 41 42 43 44 45 46 47 48 49 50
000
ASUS45 KBOU 270607
RWRCO

WEATHER ROUNDUP FOR COLORADO
NATIONAL WEATHER SERVICE DENVER/BOULDER CO
1200 AM MDT WED MAY 27 2015

NOTE: "FAIR" INDICATES FEW OR NO CLOUDS BELOW 12000 FEET WITH NO
SIGNIFICANT WEATHER AND/OR OBSTRUCTIONS TO VISIBILITY.

COZ001>005-013-030-031-270700-
...NORTHWEST COLORADO...

CITY           SKY/WX    TMP DP  RH WIND       PRES   REMARKS
CRAIG          CLOUDY    49  44  83 SW5       30.14R
HAYDEN         CLOUDY    48  41  76 E3        30.14S
MEEKER         CLOUDY    50  42  74 W10       30.17R
MOUNT WERNER   NOT AVBL
STEAMBOAT SPGS CLOUDY    45  44  95 CALM      30.15S
WALDEN         CLOUDY    43  36  75 S6        30.19S
$$

COZ006>008-011-270700-
...WEST CENTRAL VALLEYS...

CITY           SKY/WX    TMP DP  RH WIND       PRES   REMARKS
GRAND JUNCTION MOCLDY    54  48  80 CALM      30.10S
MONTROSE       CLEAR     48  46  93 E6        30.16S
EAGLE          MOCLDY    46  45  93 E7        30.19S
RIFLE          CLOUDY    51  47  86 S3        30.14F
DELTA          CLEAR     53  47  82 MISG      30.13S
NUCLA          CLEAR     46  45  93 NW3       30.17S
$$

COZ017>023-064>068-270700-
...SOUTHWEST COLORADO...

CITY           SKY/WX    TMP DP  RH WIND       PRES   REMARKS
DURANGO        MOCLDY    49  41  74 N10       30.17F
CORTEZ         CLEAR     48  43  82 CALM      30.13F
PAGOSA SPRINGS PTCLDY    46  42  86 NE6       30.24F
TELLURIDE      MOCLDY    43  35  73 SE5       30.30F
WOLF CREEK PAS NOT AVBL
$$

COZ009-010-012-014-032>034-037-058>063-270700-
...CENTRAL COLORADO...

CITY           SKY/WX    TMP DP  RH WIND       PRES   REMARKS
ASPEN          NOT AVBL
BUENA VISTA    CLOUDY    49  34  55 S7        30.21S
COPPER MTN     PTCLDY    36  28  75 SW14      30.37S
BERTHOUD PASS  FAIR      28  21  74 W17G32    30.38S WCI  16
COTTONWOOD PAS CLOUDY    45  32  61 SE5       30.29F
GUNNISON       PTCLDY    45  37  76 N6        30.26S
KREMMLING      CLOUDY    46  39  76 CALM      30.21R
LEADVILLE      PTCLDY    33  31  92 CALM      30.27F
SALIDA         MOCLDY    52  36  53 SW12      30.27F
SUNLIGHT       CLOUDY    36  36 100 CALM      30.34F FOG
WILKERSON PASS PTCLDY    34  30  86 SW9       30.35F WCI  26
$$

COZ069>075-270700-
...SAN LUIS VALLEY/SANGRE DE CRISTO MOUNTAINS...

CITY           SKY/WX    TMP DP  RH WIND       PRES   REMARKS
ALAMOSA        CLEAR     42  38  85 W7        30.23R
LA VETA PASS   PTCLDY   N/A N/A N/A MISG      30.33S
SAGUACHE       CLEAR     43  41  93 NW9       30.25R
$$

COZ035-036-038>040-270700-
...NORTHERN COLORADO FRONT RANGE...

CITY           SKY/WX    TMP DP  RH WIND       PRES   REMARKS
DENVER INTL AP MOCLDY    51  46  83 S10       30.07S
DMNS CITY PARK   N/A     54  47  77 S3        30.07S
AURORA         MOCLDY    53  45  72 S13       30.08F
FRONT RANGE AP MOCLDY    54  46  76 MISG      30.08S
ERIE MUNI ARPT PTCLDY    51  46  83 CALM      30.06S
BOULDER MUN AP CLOUDY    55  41  58 NW3       30.05F
CENTENNIAL     MOCLDY    51  45  79 S9        30.09F
BROOMFIELD     PTCLDY    52  45  76 SW3       30.08S
FORT COLLINS   PTCLDY    54  48  82 NE3       30.07S
LONGMONT       MOCLDY    54  48  79 CALM      30.08S
$$

COZ041-046-047-076>085-087-088-270700-
...PIKES PEAK/PALMER DIVIDE AND SOUTHERN FOOTHILLS...

CITY           SKY/WX    TMP DP  RH WIND       PRES   REMARKS
COLO. SPRINGS  CLOUDY    51  47  86 CALM      30.15S
A. F. ACADEMY  CLOUDY    47  47  99 CALM      30.14S
ELLICOTT       CLOUDY   N/A N/A N/A E12       30.13F
FALCON         CLOUDY    48  44  87 S3        30.17F
FORT CARSON    CLEAR     52  47  84 S2        30.13S
LIMON          LGT RAIN  53  48  83 SW8       30.12F
MONUMENT HILL    N/A     45  43  93 E8        30.16S
TRINIDAD       MOCLDY    51  47  86 SW6       30.12R
$$

COZ042>045-048>051-090-091-270700-
...NORTHEAST COLORADO...

CITY           SKY/WX    TMP DP  RH WIND       PRES   REMARKS
GREELEY ARPT   PTCLDY    52  48  87 NE6       30.05F
AKRON          PTCLDY    52  50  93 SE9       30.07F
BURLINGTON     PTCLDY    53  49  86 SE10      30.08R
WRAY           CLEAR     56  51  84 SE5       30.06R
STERLING       PTCLDY    55  50  82 S3        30.04S
HOLYOKE        PTCLDY    55  50  82 SE8       30.06R
FORT MORGAN    PTCLDY    54  49  83 E8        30.06F
$$

COZ086-089-092>099-270700-
...SOUTHEAST COLORADO...

CITY           SKY/WX    TMP DP  RH WIND       PRES   REMARKS
PUEBLO         CLOUDY    57  52  83 NE5       30.07F
LA JUNTA       CLOUDY    60  52  74 N13       30.08R
LAMAR          CLOUDY    61  54  77 NE7       30.05R
SPRINGFIELD      N/A     60  52  74 SW6       30.10R
$$


USA.gov is the U.S. government's official web portal to all federal, state and local government web resources and services.